User: anonymous   Login
Location: Gesvres
(49.0440°N, 2.8518°E)
Time: 14:42:56
(UTC+00:00)
Language:

Cosmos 1844 - Orbit

View from above orbital plane
View from above orbital plane
View from above satellite
View from above satellite

Ground track
Ground track

The orbit data is extracted from the following two-line orbital elements,

1 17973U 87041A   23151.93053857  .00000315  00000-0  18941-3 0  9994
2 17973  70.8997   9.7757 0029240 103.8915 256.5462 14.14223868860382
Epoch (UTC): 31 May 2023 22:19:58
Eccentricity: 0.0029240
inclination: 70.8997°
perigee height: 824 km
apogee height: 866 km
right ascension of ascending node: 9.7757°
argument of perigee: 103.8915°
revolutions per day: 14.14223868
mean anomaly at epoch: 256.5462°
orbit number at epoch: 86038

The dashed part of the orbit path shows where the satellite is in the earth's shadow,  

DLR